{"data":{"norad_id":67414,"intl_designator":"2026-005L","name":"STARLINK-36506","alt_names":[],"object_type":"PAYLOAD","status":"ACTIVE","operator":null,"country":"US","launch_date":"2026-01-12","launch_site_code":"AFETR","launch_vehicle":null,"mission":null,"orbit_class":"UNKNOWN","rcs_meters":null,"size_class":null,"mass_kg":null,"dimensions":null,"purposes":["comms"],"wikipedia_slug":null,"has_3d_model":false,"image_url":null,"decayed_at":null,"tle_current":{"epoch":"2026-09-19T22:04:42.701088Z","epoch_age_seconds":125528,"freshness":"FRESH","line1":"1 67414U 26005L   26262.91993867  .00009443  00000+0  35207-3 0  9994","line2":"2 67414  42.9943 220.8798 0000490 121.9030 238.1869 15.27595639 38404","mean_motion":15.27595639,"eccentricity":4.9e-5,"inclination_deg":42.9943,"raan_deg":220.8798,"arg_perigee_deg":121.903,"mean_anomaly_deg":238.1869,"bstar":0.00035207,"rev_number":3840,"period_min":94.265783643023,"perigee_km":482.66607182295,"apogee_km":483.33846347118,"semimajor_km":6861.1392676471,"source":"CELESTRAK","updated_at":"2026-09-20T09:00:43.520999Z"}}}